UPS2894 KMHR-KRNO

Flight info

Callsign UPS2894
Flight time 0h 24m
Altitude 21000
Route ORRCA TARVR2
Aircraft A306/H-SDE3FGHIRWY/LB1

Departure

Time 2026-04-29 01:36
Airport Sacramento Mather Airport (KMHR)

Arrival

Time 2026-04-29 02:01
Airport Reno Tahoe International Airport (KRNO)
Time Latitude Longitude Altitude Speed Heading
2026-04-29 01:22 38.56255 -121.29819 103 ft 0 kts 266°
2026-04-29 01:25 38.56243 -121.29858 103 ft 5 kts 226°
2026-04-29 01:25 38.56216 -121.29871 103 ft 6 kts 177°
2026-04-29 01:25 38.56128 -121.29861 105 ft 21 kts 178°
2026-04-29 01:26 38.55981 -121.29834 103 ft 6 kts 127°
2026-04-29 01:26 38.55996 -121.29773 103 ft 15 kts 62°
2026-04-29 01:26 38.56050 -121.29671 106 ft 13 kts 54°
2026-04-29 01:26 38.56100 -121.29581 104 ft 13 kts 54°
2026-04-29 01:27 38.56152 -121.29491 103 ft 14 kts 51°
2026-04-29 01:27 38.56242 -121.29339 103 ft 29 kts 52°
2026-04-29 01:27 38.56363 -121.29128 101 ft 29 kts 54°
2026-04-29 01:27 38.56480 -121.28926 99 ft 28 kts 53°
2026-04-29 01:28 38.56528 -121.28721 102 ft 22 kts 86°
2026-04-29 01:28 38.56538 -121.28542 106 ft 19 kts 85°
2026-04-29 01:28 38.56521 -121.28398 107 ft 15 kts 132°
2026-04-29 01:28 38.56442 -121.28323 108 ft 13 kts 143°
2026-04-29 01:29 38.56368 -121.28261 108 ft 14 kts 157°
2026-04-29 01:29 38.56237 -121.28304 105 ft 23 kts 226°
2026-04-29 01:29 38.56022 -121.28672 103 ft 59 kts 233°
2026-04-29 01:29 38.55833 -121.28996 104 ft 42 kts 233°
2026-04-29 01:30 38.55666 -121.29284 104 ft 39 kts 237°
2026-04-29 01:30 38.55534 -121.29540 98 ft 28 kts 231°
2026-04-29 01:30 38.55541 -121.29660 99 ft 10 kts 310°
2026-04-29 01:30 38.55567 -121.29692 98 ft 0 kts 318°
2026-04-29 01:32 38.55587 -121.29716 98 ft 15 kts 318°
2026-04-29 01:33 38.55723 -121.29882 102 ft 37 kts 316°
2026-04-29 01:33 38.55842 -121.30020 102 ft 3 kts 345°
2026-04-29 01:33 38.55878 -121.29970 102 ft 18 kts 53°
2026-04-29 01:33 38.55965 -121.29820 102 ft 22 kts 55°
2026-04-29 01:34 38.56032 -121.29662 105 ft 15 kts 53°
2026-04-29 01:34 38.56120 -121.29541 105 ft 32 kts 47°
2026-04-29 01:34 38.56265 -121.29303 105 ft 34 kts 53°
2026-04-29 01:34 38.56405 -121.29059 100 ft 34 kts 52°
2026-04-29 01:35 38.56530 -121.28822 101 ft 22 kts 71°
2026-04-29 01:35 38.56537 -121.28629 106 ft 26 kts 88°
2026-04-29 01:35 38.56509 -121.28392 108 ft 26 kts 131°
2026-04-29 01:35 38.56371 -121.28263 107 ft 24 kts 154°
2026-04-29 01:36 38.56208 -121.28347 104 ft 40 kts 233°
2026-04-29 01:36 38.55842 -121.28984 106 ft 136 kts 233°
2026-04-29 01:36 38.55107 -121.30231 410 ft 200 kts 235°
2026-04-29 01:36 38.54287 -121.31654 1783 ft 202 kts 236°
2026-04-29 01:37 38.53344 -121.33080 2574 ft 221 kts 216°
2026-04-29 01:37 38.51811 -121.33494 3177 ft 246 kts 175°
2026-04-29 01:37 38.50109 -121.32984 3927 ft 255 kts 165°
2026-04-29 01:37 38.48512 -121.32164 5178 ft 238 kts 151°
2026-04-29 01:38 38.47131 -121.31015 6205 ft 243 kts 137°
2026-04-29 01:38 38.45832 -121.29460 6481 ft 267 kts 131°
2026-04-29 01:38 38.45077 -121.27271 7068 ft 279 kts 95°
2026-04-29 01:38 38.45450 -121.24874 8286 ft 277 kts 66°
2026-04-29 01:39 38.46303 -121.22665 9578 ft 279 kts 65°
2026-04-29 01:39 38.47117 -121.20396 10578 ft 288 kts 67°
2026-04-29 01:39 38.47888 -121.17927 11055 ft 312 kts 69°
2026-04-29 01:39 38.48640 -121.15215 11435 ft 335 kts 71°
2026-04-29 01:40 38.49396 -121.12302 11791 ft 356 kts 71°
2026-04-29 01:40 38.50170 -121.09218 12264 ft 371 kts 71°
2026-04-29 01:40 38.50956 -121.06041 12902 ft 380 kts 71°
2026-04-29 01:40 38.51750 -121.02800 13653 ft 385 kts 71°
2026-04-29 01:41 38.52552 -120.99514 14308 ft 391 kts 71°
2026-04-29 01:41 38.53362 -120.96185 15012 ft 395 kts 71°
2026-04-29 01:41 38.54181 -120.92815 15741 ft 399 kts 72°
2026-04-29 01:41 38.54726 -120.90571 16212 ft 401 kts 71°
2026-04-29 01:42 38.55479 -120.87466 16835 ft 405 kts 71°
2026-04-29 01:42 38.56315 -120.84009 17532 ft 409 kts 72°
2026-04-29 01:42 38.57157 -120.80518 18155 ft 414 kts 71°
2026-04-29 01:42 38.58006 -120.76988 18752 ft 417 kts 71°
2026-04-29 01:43 38.58860 -120.73434 19336 ft 420 kts 71°
2026-04-29 01:43 38.59428 -120.71066 19719 ft 421 kts 70°
2026-04-29 01:43 38.60192 -120.67880 20229 ft 423 kts 70°
2026-04-29 01:43 38.61045 -120.64328 20564 ft 427 kts 70°
2026-04-29 01:44 38.61927 -120.60640 20870 ft 427 kts 70°
2026-04-29 01:44 38.62795 -120.57006 21036 ft 428 kts 69°
2026-04-29 01:44 38.63652 -120.53412 21045 ft 428 kts 69°
2026-04-29 01:44 38.64520 -120.49769 21061 ft 429 kts 69°
2026-04-29 01:45 38.65388 -120.46117 21063 ft 429 kts 69°
2026-04-29 01:45 38.66253 -120.42473 21060 ft 429 kts 69°
2026-04-29 01:45 38.67122 -120.38815 21084 ft 429 kts 70°
2026-04-29 01:45 38.67985 -120.35174 21073 ft 425 kts 70°
2026-04-29 01:46 38.68815 -120.31638 20799 ft 404 kts 70°
2026-04-29 01:46 38.69603 -120.28279 20677 ft 384 kts 70°
2026-04-29 01:46 38.70362 -120.25048 20159 ft 377 kts 70°
2026-04-29 01:46 38.71118 -120.21847 19597 ft 374 kts 71°
2026-04-29 01:47 38.71864 -120.18680 19073 ft 370 kts 71°
2026-04-29 01:47 38.72600 -120.15547 18569 ft 366 kts 72°
2026-04-29 01:47 38.73330 -120.12441 17997 ft 363 kts 72°
2026-04-29 01:47 38.74050 -120.09361 17458 ft 358 kts 72°
2026-04-29 01:48 38.74761 -120.06326 16961 ft 354 kts 72°
2026-04-29 01:48 38.75460 -120.03327 16457 ft 349 kts 72°
2026-04-29 01:48 38.76153 -120.00359 15937 ft 346 kts 73°
2026-04-29 01:48 38.76837 -119.97423 15560 ft 339 kts 73°
2026-04-29 01:49 38.77491 -119.94605 15461 ft 322 kts 73°
2026-04-29 01:49 38.78113 -119.91924 15363 ft 307 kts 73°
2026-04-29 01:49 38.78709 -119.89353 15246 ft 295 kts 73°
2026-04-29 01:49 38.79285 -119.86870 15064 ft 288 kts 73°
2026-04-29 01:50 38.79859 -119.84392 14574 ft 293 kts 73°
2026-04-29 01:50 38.80453 -119.81919 14208 ft 299 kts 69°
2026-04-29 01:50 38.81447 -119.79519 14009 ft 300 kts 52°
2026-04-29 01:50 38.83029 -119.77803 13843 ft 300 kts 28°
2026-04-29 01:51 38.85024 -119.77085 13726 ft 300 kts
2026-04-29 01:51 38.87110 -119.76997 13571 ft 300 kts
2026-04-29 01:51 38.89195 -119.77015 13445 ft 300 kts
2026-04-29 01:51 38.91280 -119.77035 13319 ft 299 kts
2026-04-29 01:52 38.93330 -119.77046 13160 ft 299 kts
2026-04-29 01:52 38.95430 -119.77051 12891 ft 297 kts
2026-04-29 01:52 38.97470 -119.77052 12652 ft 296 kts
2026-04-29 01:52 38.99527 -119.77050 12415 ft 295 kts
2026-04-29 01:53 39.01578 -119.77047 12174 ft 294 kts
2026-04-29 01:53 39.03615 -119.77044 11982 ft 289 kts
2026-04-29 01:53 39.05611 -119.77042 11776 ft 278 kts
2026-04-29 01:53 39.07519 -119.77040 11565 ft 271 kts
2026-04-29 01:54 39.09390 -119.77036 11353 ft 268 kts
2026-04-29 01:54 39.11256 -119.77031 11121 ft 268 kts
2026-04-29 01:54 39.13145 -119.77024 10593 ft 273 kts
2026-04-29 01:54 39.15020 -119.77017 10277 ft 266 kts
2026-04-29 01:55 39.16870 -119.77011 9702 ft 265 kts
2026-04-29 01:55 39.18713 -119.77005 9119 ft 264 kts
2026-04-29 01:55 39.20545 -119.76999 8527 ft 260 kts
2026-04-29 01:55 39.22346 -119.76995 7938 ft 258 kts
2026-04-29 01:56 39.24142 -119.76990 7413 ft 260 kts
2026-04-29 01:56 39.25937 -119.76986 7040 ft 259 kts
2026-04-29 01:56 39.27710 -119.76980 7059 ft 253 kts
2026-04-29 01:56 39.29463 -119.76995 7093 ft 252 kts 358°
2026-04-29 01:57 39.31222 -119.77037 7264 ft 250 kts 359°
2026-04-29 01:57 39.32970 -119.77100 7943 ft 252 kts 358°
2026-04-29 01:57 39.34727 -119.77114 7834 ft 247 kts
2026-04-29 01:57 39.36402 -119.77019 7509 ft 236 kts
2026-04-29 01:58 39.37973 -119.76909 7081 ft 217 kts
2026-04-29 01:58 39.39416 -119.76765 6809 ft 195 kts
2026-04-29 01:58 39.40662 -119.76637 6630 ft 166 kts
2026-04-29 01:58 39.41784 -119.76620 6252 ft 156 kts 359°
2026-04-29 01:59 39.42840 -119.76669 5958 ft 149 kts 358°
2026-04-29 01:59 39.43851 -119.76696 5679 ft 143 kts 359°
2026-04-29 01:59 39.44845 -119.76687 5416 ft 144 kts
2026-04-29 01:59 39.45858 -119.76684 5239 ft 147 kts
2026-04-29 02:00 39.46885 -119.76680 4944 ft 147 kts
2026-04-29 02:00 39.47874 -119.76682 4712 ft 138 kts 360°
2026-04-29 02:00 39.48811 -119.76680 4535 ft 132 kts 359°
2026-04-29 02:00 39.49669 -119.76681 4487 ft 107 kts
2026-04-29 02:01 39.50285 -119.76679 4495 ft 66 kts 359°
2026-04-29 02:01 39.50517 -119.76682 4495 ft 34 kts
2026-04-29 02:01 39.50662 -119.76680 4498 ft 19 kts
2026-04-29 02:01 39.50820 -119.76675 4498 ft 26 kts
2026-04-29 02:02 39.51000 -119.76771 4499 ft 30 kts 319°
2026-04-29 02:02 39.51100 -119.76973 4499 ft 24 kts 277°
2026-04-29 02:02 39.51085 -119.77134 4498 ft 10 kts 227°
2026-04-29 02:02 39.51025 -119.77157 4499 ft 7 kts 179°
2026-04-29 02:03 39.50984 -119.77154 4498 ft 9 kts 176°
2026-04-29 02:03 39.50916 -119.77155 4498 ft 4 kts 197°
2026-04-29 02:03 39.50915 -119.77173 4498 ft 3 kts 284°
2026-04-29 02:03 39.50933 -119.77195 4498 ft 7 kts 322°
2026-04-29 02:04 39.50970 -119.77224 4498 ft 0 kts 328°